Overview Statistics Trail Chart Weather Telemetry Raw packets
 

This is the latest recevied weather packets stored in our database for station/object KB8TTR. If no packets are shown the sender has not sent any weather packets the latest 10 day(s).

<< 96 97 98 99 100 101 102 >>
Time Temp. Humidity Pressure Rain* Wind** Luminosity Snow
1787897358 19.44° C 86% 1018 hPa 0 mm - 0 W/m² -
1787897053 19.44° C 85% 1018.2 hPa 0 mm - 0 W/m² -
1787896752 19.44° C 85% 1018.2 hPa 0 mm - 0 W/m² -
1787896449 20° C 84% 1018.1 hPa 0 mm - 0 W/m² -
1787896144 20° C 83% 1018.1 hPa 0 mm - 0 W/m² -
1787895840 20° C 83% 1018 hPa 0 mm - 0 W/m² -
1787895539 20° C 82% 1018.1 hPa 0 mm - 0 W/m² -
1787895236 20° C 82% 1017.8 hPa 0 mm - 0 W/m² -
1787894930 20° C 83% 1017.8 hPa 0 mm - 0 W/m² -
1787894626 19.44° C 84% 1018 hPa 0 mm - 0 W/m² -
1787894325 19.44° C 85% 1017.9 hPa 0 mm - 0 W/m² -
1787894022 18.89° C 86% 1018 hPa 0 mm - 0 W/m² -
1787893718 18.89° C 88% 1017.9 hPa 0 mm - 0 W/m² -
1787893417 18.33° C 89% 1017.9 hPa 0 mm - 0 W/m² -
1787893113 18.33° C 89% 1017.8 hPa 0 mm - 0 W/m² -
1787892810 18.33° C 88% 1017.7 hPa 0 mm - 0 W/m² -
1787892505 18.33° C 88% 1017.6 hPa 0 mm - 0 W/m² -
1787892202 18.33° C 88% 1017.7 hPa 0 mm - 0 W/m² -
1787891902 18.33° C 87% 1017.6 hPa 0 mm - 0 W/m² -
1787891598 18.33° C 87% 1017.6 hPa 0 mm - 0 W/m² -
1787891293 18.89° C 87% 1017.7 hPa 0 mm - 0 W/m² -
1787890988 18.89° C 86% 1017.5 hPa 0 mm - 0 W/m² -
1787890687 18.89° C 86% 1017.5 hPa 0 mm - 0 W/m² -
1787890381 18.89° C 86% 1017.5 hPa 0 mm - 0 W/m² -
1787890077 18.89° C 86% 1017.6 hPa 0 mm - 0 W/m² -

* Rain latest hour (hover to see other rain measurements)
** Current wind speed in m/s (hover to see current wind gust speed)